Location: Unspecified
(0.0000°N, 0.0000°E)
Time: 22:16:11
(UTC+00:00)

Vanguard 2 - All Passes

Search period start: 23 November 2014 00:00
Search period end: 03 December 2014 00:00
Orbit: 553 x 2947 km, 32.9° (Epoch: 22 November)

Date Brightness Start Highest point End Pass type
(mag) Time Alt. Az. Time Alt. Az. Time Alt. Az.
23 Nov - 03:31:09 10° SW 03:36:06 54° SE 03:43:56 10° ENE visible
23 Nov - 05:39:30 10° W 05:45:54 36° NNW 05:55:59 10° NE daylight
23 Nov - 07:52:48 10° NW 07:59:19 17° N 08:07:29 10° NNE daylight
23 Nov - 10:08:47 10° NNW 10:16:29 15° N 10:24:55 10° NE daylight
23 Nov - 12:20:37 10° NNW 12:34:16 26° NNE 12:46:52 10° ENE daylight
23 Nov - 14:32:05 10° NW 14:49:18 57° NNE 15:01:34 10° ESE daylight
23 Nov - 16:46:05 10° WNW 17:01:14 59° SW 17:10:39 10° SE daylight
23 Nov - 19:06:21 10° WSW 19:11:09 14° SW 19:15:06 10° S visible
24 Nov - 01:46:40 10° SE 01:47:04 10° SE 01:47:29 10° SE visible
24 Nov - 03:50:04 10° SW 03:55:11 89° NW 04:03:35 10° NE visible
24 Nov - 05:59:42 10° WNW 06:05:49 26° NNW 06:14:45 10° NNE daylight
24 Nov - 08:14:34 10° NNW 08:20:05 14° N 08:26:36 10° NNE daylight
24 Nov - 10:28:49 10° NNW 10:37:42 16° NNE 10:47:18 10° NE daylight
24 Nov - 12:39:36 10° NNW 12:54:43 33° NNE 13:08:09 10° E daylight
24 Nov - 14:51:19 10° NW 15:08:59 73° NE 15:21:11 10° ESE daylight
24 Nov - 17:06:29 10° WNW 17:20:21 43° SW 17:29:20 10° SSE daylight
25 Nov - 02:02:54 10° S 02:06:07 20° SE 02:10:06 10° E visible
25 Nov - 04:09:19 10° WSW 04:14:29 55° NNW 04:22:51 10° NE visible
25 Nov - 06:20:27 10° WNW 06:25:56 19° NNW 06:33:17 10° NNE daylight
25 Nov - 08:36:22 10° NNW 08:41:04 12° N 08:46:22 10° NNE daylight
25 Nov - 10:48:12 10° NNW 10:58:43 19° NNE 11:09:54 10° ENE daylight
25 Nov - 12:58:33 10° NW 13:14:53 41° NNE 13:28:54 10° E daylight
25 Nov - 15:10:46 10° NW 15:28:29 89° SW 15:40:31 10° SE daylight
25 Nov - 17:27:27 10° W 17:39:31 31° SW 17:47:46 10° SSE daylight
26 Nov - 02:21:06 10° SSW 02:25:05 37° SE 02:30:31 10° ENE visible
26 Nov - 04:28:58 10° W 04:34:01 35° NNW 04:41:46 10° NE visible
26 Nov - 06:41:55 10° NW 06:46:16 14° N 06:51:35 10° NNE daylight
26 Nov - 08:57:21 10° NNW 09:02:10 12° N 09:07:31 10° NNE daylight
26 Nov - 11:07:14 10° NNW 11:19:28 24° NNE 11:32:13 10° ENE daylight
26 Nov - 13:17:32 10° NW 13:34:50 53° NNE 13:49:10 10° ESE daylight
26 Nov - 15:30:30 10° WNW 15:47:50 71° SW 15:59:35 10° SE daylight
26 Nov - 17:49:08 10° W 17:58:49 22° SW 18:05:55 10° S daylight
27 Nov - 02:39:50 10° SW 02:44:06 71° SE 02:50:17 10° ENE visible
27 Nov - 04:49:06 10° WNW 04:53:47 23° NNW 05:00:22 10° NNE visible
27 Nov - 07:04:34 10° NNW 07:06:50 11° N 07:09:18 10° N daylight
27 Nov - 09:17:08 10° NNW 09:23:15 13° NNE 09:30:06 10° NE daylight
27 Nov - 11:26:07 10° NNW 11:39:54 30° NNE 11:54:00 10° E daylight
27 Nov - 13:36:38 10° NW 13:54:35 66° NE 14:09:02 10° ESE daylight
27 Nov - 15:50:37 10° WNW 16:07:07 54° SW 16:18:26 10° SE daylight
27 Nov - 18:11:51 10° WSW 18:18:20 15° SW 18:23:34 10° S visible
28 Nov - 00:53:27 10° S 00:55:06 12° SE 00:56:50 10° ESE night (unlit)
28 Nov - 02:58:57 10° WSW 03:03:16 61° NNW 03:09:35 10° NE visible
28 Nov - 05:09:56 10° NW 05:13:43 16° NNW 05:18:32 10° NNE visible
28 Nov - 09:36:12 10° NNW 09:44:11 16° NNE 09:53:15 10° NE daylight
28 Nov - 11:44:56 10° NNW 12:00:04 38° NNE 12:15:11 10° E daylight
28 Nov - 13:55:55 10° NW 14:14:10 83° NE 14:28:33 10° ESE daylight
28 Nov - 16:11:13 10° WNW 16:26:24 41° SW 16:37:05 10° SSE daylight
29 Nov - 01:10:58 10° SSW 01:14:14 24° SE 01:17:55 10° E night (unlit)
29 Nov - 03:18:31 10° W 03:22:38 34° NNW 03:28:28 10° NE visible
29 Nov - 05:32:23 10° NNW 05:33:52 11° NNW 05:35:28 10° N daylight
29 Nov - 09:54:57 10° NNW 10:04:52 20° NNE 10:16:12 10° ENE daylight
29 Nov - 12:03:48 10° NW 12:19:59 48° NNE 12:35:49 10° ESE daylight
29 Nov - 14:15:26 10° WNW 14:33:38 80° SW 14:47:48 10° SE daylight
29 Nov - 16:32:24 10° W 16:45:47 30° SW 16:55:33 10° SSE daylight
30 Nov - 01:29:27 10° SW 01:33:17 50° SE 01:37:51 10° ENE night (unlit)
30 Nov - 03:38:37 10° WNW 03:42:13 20° NNW 03:46:55 10° NNE visible
30 Nov - 10:13:37 10° NNW 10:25:15 25° NNE 10:38:36 10° ENE daylight
30 Nov - 12:22:45 10° NW 12:39:43 60° NE 12:55:59 10° ESE daylight
30 Nov - 14:35:16 10° WNW 14:53:03 64° SW 15:06:49 10° SE daylight
30 Nov - 16:54:19 10° W 17:05:22 22° SW 17:13:49 10° SSE daylight
01 Dec - 01:48:27 10° WSW 01:52:23 76° NW 01:57:14 10° NE night (unlit)
01 Dec - 03:59:44 10° NW 04:01:59 12° NNW 04:04:34 10° N visible
01 Dec - 08:26:07 10° N 08:30:12 12° NNE 08:34:43 10° NE daylight
01 Dec - 10:32:16 10° NNW 10:45:20 33° NNE 11:00:19 10° E daylight
01 Dec - 12:41:51 10° NW 12:59:19 75° NE 13:15:45 10° ESE daylight
01 Dec - 14:55:30 10° WNW 15:12:28 50° SW 15:25:39 10° SE daylight
01 Dec - 17:17:08 10° WSW 17:25:12 16° SSW 17:31:47 10° S daylight
02 Dec - 00:00:25 10° SSW 00:03:18 18° SSE 00:06:03 10° ESE night (unlit)
02 Dec - 02:07:54 10° W 02:11:36 36° NNW 02:16:08 10° NE night (unlit)
02 Dec - 08:43:59 10° N 08:50:47 15° NNE 08:58:46 10° NE daylight
02 Dec - 10:50:57 10° NNW 11:05:10 42° NE 11:21:24 10° E daylight
02 Dec - 13:01:09 10° NW 13:18:50 89° SW 13:35:12 10° SE daylight
02 Dec - 15:16:14 10° W 15:31:58 38° SW 15:44:20 10° SSE daylight
02 Dec - 17:41:22 10° SW 17:45:21 12° SSW 17:48:55 10° S daylight
